Location: Newark
(37.3394°N, 6.0261°W)
Time: 18:30:33
(UTC+00:00)

Envisat - Pass Details

Date: 20 March 2019
Orbit: 764 x 766 km, 98.1° (Epoch: 22 October)

Event Time Altitude Azimuth Distance (km) Brightness Sun altitude
Rises 19:48:47 0° 191° (SSW) 3,213 6.2 -15.3°
Reaches altitude 10° 19:51:19 10° 202° (SSW) 2,292 5.6 -15.7°
Maximum altitude 19:55:45 31° 263° (W) 1,327 4.9 -16.6°
Drops below altitude 10° 20:00:14 10° 325° (NW) 2,306 6.2 -17.5°
Sets 20:02:48 0° 336° (NNW) 3,237 6.8 -18.0°
